Location: Qazi Observatory
(41.6337°N, 88.1517°W)
Time: 10:09:13
(UTC-05:00)

Amateur Radio Satellites - All Passes

Search period start: 30 October 2014 09:39
Search period end: 31 October 2014 09:39
Location: Qazi Observatory, 41.6337°N, 88.1517°W

Satellite Date Start Highest point End Downlink Frequencies (MHz)
Time Altitude Azimuth
UKube-1 30 Oct 10:10:11 10:14:15 37° 98° (E) 10:18:17 145.840 MHz, 145.915 MHz
ZACube-1 30 Oct 10:17:29 10:20:22 18° 93° (E) 10:23:12 437.345 MHz
ISS 30 Oct 10:27:51 10:30:58 40° 138° (SE) 10:34:07 145.800 FM
HO-68 30 Oct 10:40:28 10:47:31 60° 292° (WNW) 10:54:32 435.675 MHz FM
Sapphire 30 Oct 10:40:51 10:45:06 23° 45° (NE) 10:49:19 437.095 MHz 1200 baud AX-25 AFSK
Oscar 11 30 Oct 10:46:07 10:50:27 87° 283° (WNW) 10:54:45 145.825 FM, Beacon 2401.500 USB
SO-50 30 Oct 10:46:29 10:49:58 22° 111° (ESE) 10:53:31 436.795 FM
FUNcube-1 30 Oct 10:59:44 11:03:52 53° 100° (E) 11:07:55 145.950 - 145.970 MHz USB
PCSat 30 Oct 11:02:20 11:07:14 33° 51° (NE) 11:12:07 145.825 MHz
KITSAT 1 30 Oct 11:20:01 11:28:04 76° 117° (ESE) 11:36:09 435.175 FM
UKube-1 30 Oct 11:46:56 11:50:12 21° 295° (WNW) 11:53:26 145.840 MHz, 145.915 MHz
ZACube-1 30 Oct 11:53:02 11:56:55 37° 289° (WNW) 12:00:44 437.345 MHz
ISS 30 Oct 12:04:44 12:07:43 30° 336° (NNW) 12:10:44 145.800 FM
Oscar 19 30 Oct 12:16:11 12:19:25 17° 61° (ENE) 12:22:38 437.125 CW, 437.150 USB
Sapphire 30 Oct 12:23:35 12:28:58 63° 245° (WSW) 12:34:18 437.095 MHz 1200 baud AX-25 AFSK
SO-50 30 Oct 12:25:56 12:30:14 42° 310° (NW) 12:34:40 436.795 FM
HO-68 30 Oct 12:31:12 12:33:46 12° 311° (NW) 12:36:20 435.675 MHz FM
FUNcube-1 30 Oct 12:37:39 12:39:46 14° 297° (WNW) 12:41:53 145.950 - 145.970 MHz USB
PCSat 30 Oct 12:45:42 12:50:40 37° 249° (WSW) 12:55:36 145.825 MHz
AO-27 30 Oct 12:49:54 12:52:49 15° 60° (ENE) 12:55:43 436.795 MHz FM
Oscar 16 30 Oct 13:01:03 13:05:54 43° 70° (ENE) 13:10:45 437.025 USB, Beacon 2401.1428
JAS-1B 30 Oct 13:15:00 13:20:34 52° 70° (ENE) 13:26:06 435.800 - 435.900 CW/SSB
UOSAT-12 30 Oct 13:15:34 13:20:09 66° 120° (ESE) 13:24:50 437.025 FM, 437.400 FM
KITSAT 1 30 Oct 13:17:21 13:24:15 30° 319° (NW) 13:31:11 435.175 FM
Uribyol 2 30 Oct 13:32:01 13:36:46 37° 68° (ENE) 13:41:32 436.500 FM
ITAMSAT 1 30 Oct 13:39:34 13:44:24 40° 69° (ENE) 13:49:17 435.822 SSB
ISS 30 Oct 13:43:11 13:45:12 15° 356° (N) 13:47:14 145.800 FM
AO-Echo 30 Oct 13:45:03 13:49:54 57° 72° (ENE) 13:54:57 ?
Oscar 19 30 Oct 13:53:08 13:58:13 64° 258° (WSW) 14:03:20 437.125 CW, 437.150 USB
Saudisat 1A 30 Oct 13:58:59 14:02:37 24° 45° (NE) 14:06:13 436.775 MHz
AO-7 30 Oct 14:08:43 14:13:50 18° 48° (NE) 14:18:57 29.400 - 29.500 MHz
AO-27 30 Oct 14:26:28 14:31:41 75° 257° (WSW) 14:36:56 436.795 MHz FM
Gurwin Techsat 1B 30 Oct 14:35:42 14:40:58 70° 74° (ENE) 14:46:16 435.225 FM
Oscar 16 30 Oct 14:41:23 14:45:25 23° 266° (W) 14:49:27 437.025 USB, Beacon 2401.1428
TMSAT-1 30 Oct 14:42:52 14:48:04 61° 72° (ENE) 14:53:18 436.925 FM
UOSAT-12 30 Oct 14:57:21 15:00:45 20° 319° (NW) 15:04:12 437.025 FM, 437.400 FM
JAS-1B 30 Oct 15:07:41 15:11:41 19° 268° (W) 15:15:40 435.800 - 435.900 CW/SSB
Uribyol 2 30 Oct 15:11:51 15:16:17 28° 265° (W) 15:20:45 436.500 FM
ITAMSAT 1 30 Oct 15:19:45 15:24:00 25° 265° (W) 15:28:18 435.822 SSB
KITSAT 1 30 Oct 15:19:50 15:22:54 12° 348° (NNW) 15:25:58 435.175 FM
ISS 30 Oct 15:20:17 15:22:51 20° 16° (NNE) 15:25:24 145.800 FM
AO-Echo 30 Oct 15:25:53 15:29:04 17° 270° (W) 15:32:21 ?
Uosat F 30 Oct 15:36:17 15:40:34 29° 66° (ENE) 15:44:51 435.120 FM
Saudisat 1A 30 Oct 15:38:09 15:42:20 42° 243° (WSW) 15:46:30 436.775 MHz
AO-7 30 Oct 15:57:03 16:05:17 76° 69° (ENE) 16:13:34 29.400 - 29.500 MHz
Gurwin Techsat 1B 30 Oct 16:18:36 16:21:27 15° 270° (W) 16:24:19 435.225 FM
TMSAT-1 30 Oct 16:25:00 16:28:23 17° 269° (W) 16:31:47 436.925 FM
JAS-2 30 Oct 16:48:02 16:53:54 42° 66° (ENE) 17:00:29 435.800 - 435.900 CW/SSB, 435.910 FM
ISS 30 Oct 16:56:36 16:59:57 81° 36° (NE) 17:03:17 145.800 FM
Uosat F 30 Oct 17:14:41 17:19:13 34° 263° (W) 17:23:48 435.120 FM
KITSAT 1 30 Oct 17:18:34 17:22:39 14° 20° (NNE) 17:26:44 435.175 FM
Hamsat 30 Oct 17:27:14 17:31:13 44° 73° (ENE) 17:35:12 145.90 MHz
OPAL 30 Oct 17:39:46 17:44:08 31° 99° (E) 17:48:29 ?
AO-7 30 Oct 17:52:36 17:58:48 23° 267° (W) 18:05:04 29.400 - 29.500 MHz
AO-40 30 Oct 18:26:50 00:46:12 44° 182° (S) 04:04:30 Beacon 2401.320
JAS-2 30 Oct 18:33:25 18:39:01 35° 267° (W) 18:45:19 435.800 - 435.900 CW/SSB, 435.910 FM
ISS 30 Oct 18:34:51 18:36:12 12° 231° (SW) 18:37:32 145.800 FM
SO-67 30 Oct 18:56:32 18:59:53 55° 75° (ENE) 19:03:16 435.3500 MHz FM
Hamsat 30 Oct 19:04:57 19:07:23 15° 268° (W) 19:09:49 145.90 MHz
KITSAT 1 30 Oct 19:13:13 19:20:44 40° 47° (NE) 19:28:12 435.175 FM
SO-50 30 Oct 19:16:54 19:21:00 27° 45° (NE) 19:25:08 436.795 FM
OPAL 30 Oct 19:18:38 19:22:58 31° 295° (WNW) 19:27:17 ?
RS-15 30 Oct 19:19:54 19:25:13 15° 97° (E) 19:30:30 29.354 - 29.394 USB, Beacon 29.352 USB
HO-68 30 Oct 19:23:29 19:28:40 22° 56° (NE) 19:33:51 435.675 MHz FM
STRAND 1 30 Oct 19:34:12 19:39:17 57° 101° (E) 19:44:20 ?
UOSAT-12 30 Oct 20:06:56 20:08:36 12° 33° (NNE) 20:10:15 437.025 FM, 437.400 FM
Oscar 10/S400 30 Oct 20:37:02 21:14:38 51° 201° (SSW) 05:20:11 145.825 - 145.975 CW/USB, Beacon 145.810 USB
SO-50 30 Oct 20:57:07 21:01:45 45° 243° (WSW) 21:06:24 436.795 FM
UKube-1 30 Oct 21:05:48 21:09:43 33° 69° (ENE) 21:13:39 145.840 MHz, 145.915 MHz
HO-68 30 Oct 21:08:26 21:15:35 79° 255° (WSW) 21:22:49 435.675 MHz FM
KITSAT 1 30 Oct 21:08:35 21:16:21 53° 247° (WSW) 21:24:05 435.175 FM
ZACube-1 30 Oct 21:14:22 21:17:21 18° 65° (ENE) 21:20:18 437.345 MHz
STRAND 1 30 Oct 21:14:30 21:18:01 19° 298° (WNW) 21:21:31 ?
RS-15 30 Oct 21:24:32 21:35:27 73° 117° (ESE) 21:46:18 29.354 - 29.394 USB, Beacon 29.352 USB
MaSat-1 30 Oct 21:30:31 21:33:01 16° 107° (ESE) 21:35:23 437.345 MHz
Oscar 11 30 Oct 21:41:02 21:45:20 74° 75° (ENE) 21:49:39 145.825 FM, Beacon 2401.500 USB
UOSAT-12 30 Oct 21:45:04 21:49:45 59° 54° (NE) 21:54:20 437.025 FM, 437.400 FM
FUNcube-1 30 Oct 21:55:51 22:00:10 45° 72° (ENE) 22:04:25 145.950 - 145.970 MHz USB
UKube-1 30 Oct 22:42:34 22:45:57 22° 265° (W) 22:49:22 145.840 MHz, 145.915 MHz
ZACube-1 30 Oct 22:49:00 22:53:23 47° 261° (W) 22:57:43 437.345 MHz
HO-68 30 Oct 23:01:24 23:04:22 13° 273° (W) 23:07:20 435.675 MHz FM
MaSat-1 30 Oct 23:04:38 23:08:14 36° 300° (WNW) 23:11:30 437.345 MHz
UOSAT-12 30 Oct 23:26:29 23:29:24 17° 251° (WSW) 23:32:18 437.025 FM, 437.400 FM
FUNcube-1 30 Oct 23:33:45 23:36:44 17° 268° (W) 23:39:41 145.950 - 145.970 MHz USB
RS-15 30 Oct 23:38:44 23:48:42 39° 322° (NW) 23:58:46 29.354 - 29.394 USB, Beacon 29.352 USB
JAS-1B 31 Oct 00:58:02 01:02:34 17° 91° (E) 01:07:29 435.800 - 435.900 CW/SSB
Oscar 16 31 Oct 01:13:56 01:16:44 15° 90° (E) 01:19:32 437.025 USB, Beacon 2401.1428
Sapphire 31 Oct 01:24:38 01:27:51 16° 104° (ESE) 01:31:05 437.095 MHz 1200 baud AX-25 AFSK
PCSat 31 Oct 01:44:52 01:49:20 27° 108° (ESE) 01:53:50 145.825 MHz
Uribyol 2 31 Oct 01:46:32 01:48:33 12° 89° (E) 01:50:33 436.500 FM
AO-Echo 31 Oct 01:52:57 01:56:45 20° 92° (E) 02:00:29 ?
ITAMSAT 1 31 Oct 01:53:51 01:56:27 14° 90° (E) 01:59:02 435.822 SSB
RS-15 31 Oct 01:57:39 02:05:25 21° 356° (N) 02:13:18 29.354 - 29.394 USB, Beacon 29.352 USB
Oscar 19 31 Oct 02:04:34 02:09:28 44° 99° (E) 02:14:21 437.125 CW, 437.150 USB
AO-27 31 Oct 02:39:33 02:44:26 39° 98° (E) 02:49:16 436.795 MHz FM
JAS-1B 31 Oct 02:46:31 02:53:39 89° 105° (ESE) 03:02:13 435.800 - 435.900 CW/SSB
Oscar 16 31 Oct 02:51:28 02:56:33 66° 287° (WNW) 03:01:37 437.025 USB, Beacon 2401.1428
Gurwin Techsat 1B 31 Oct 02:52:14 02:56:45 28° 95° (E) 03:01:14 435.225 FM
TMSAT-1 31 Oct 02:59:10 03:03:24 24° 94° (E) 03:07:35 436.925 FM
Sapphire 31 Oct 03:05:16 03:10:39 70° 301° (WNW) 03:16:05 437.095 MHz 1200 baud AX-25 AFSK
Uribyol 2 31 Oct 03:23:24 03:28:37 80° 286° (WNW) 03:33:47 436.500 FM
PCSat 31 Oct 03:27:22 03:32:31 44° 306° (NW) 03:37:43 145.825 MHz
AO-Echo 31 Oct 03:30:37 03:35:49 54° 288° (WNW) 03:40:56 ?
ITAMSAT 1 31 Oct 03:31:15 03:36:28 72° 286° (WNW) 03:41:38 435.822 SSB
Oscar 19 31 Oct 03:44:33 03:48:31 23° 296° (WNW) 03:52:29 437.125 CW, 437.150 USB
AO-7 31 Oct 03:59:25 04:05:50 24° 93° (E) 04:12:12 29.400 - 29.500 MHz
RS-15 31 Oct 04:13:03 04:22:40 32° 32° (NNE) 04:32:33 29.354 - 29.394 USB, Beacon 29.352 USB
AO-27 31 Oct 04:19:25 04:23:45 27° 295° (WNW) 04:28:05 436.795 MHz FM
Gurwin Techsat 1B 31 Oct 04:31:54 04:36:47 38° 292° (WNW) 04:41:38 435.225 FM
TMSAT-1 31 Oct 04:38:28 04:43:29 44° 290° (WNW) 04:48:28 436.925 FM
JAS-1B 31 Oct 04:38:57 04:43:37 19° 301° (WNW) 04:48:47 435.800 - 435.900 CW/SSB
Sapphire 31 Oct 04:52:21 04:55:06 14° 322° (NW) 04:57:50 437.095 MHz 1200 baud AX-25 AFSK
OPAL 31 Oct 04:54:36 04:59:37 59° 70° (ENE) 05:04:36 ?
Uribyol 2 31 Oct 05:05:55 05:07:13 11° 303° (WNW) 05:08:30 436.500 FM
STRAND 1 31 Oct 05:15:25 05:17:01 11° 57° (ENE) 05:18:37 ?
Uosat F 31 Oct 05:21:31 05:26:35 72° 103° (ESE) 05:31:36 435.120 FM
JAS-2 31 Oct 05:41:19 05:48:42 42° 95° (E) 05:55:48 435.800 - 435.900 CW/SSB, 435.910 FM
Saudisat 1A 31 Oct 05:44:20 05:48:31 45° 117° (ESE) 05:52:44 436.775 MHz
AO-7 31 Oct 05:51:00 05:59:18 74° 291° (WNW) 06:07:36 29.400 - 29.500 MHz
PANSAT 31 Oct 05:51:32 05:52:49 11° 178° (S) 05:54:07 not established
RS-15 31 Oct 06:25:29 06:36:44 87° 58° (ENE) 06:48:28 29.354 - 29.394 USB, Beacon 29.352 USB
OPAL 31 Oct 06:35:37 06:38:51 17° 266° (W) 06:42:04 ?
Hamsat 31 Oct 06:48:04 06:52:18 89° 283° (WNW) 06:56:33 145.90 MHz
STRAND 1 31 Oct 06:50:14 06:55:22 84° 75° (ENE) 07:00:33 ?
Uosat F 31 Oct 07:01:59 07:04:45 15° 300° (WNW) 07:07:31 435.120 FM
MaSat-1 31 Oct 07:13:56 07:15:51 19° 56° (NE) 07:17:41 437.345 MHz
Saudisat 1A 31 Oct 07:24:48 07:28:17 23° 316° (NW) 07:31:48 436.775 MHz
JAS-2 31 Oct 07:26:18 07:33:38 45° 294° (WNW) 07:40:48 435.800 - 435.900 CW/SSB, 435.910 FM
AO-7 31 Oct 07:45:39 07:50:44 18° 312° (NW) 07:55:49 29.400 - 29.500 MHz
SO-67 31 Oct 07:52:11 07:55:38 64° 101° (E) 07:59:02 435.3500 MHz FM
STRAND 1 31 Oct 08:33:39 08:35:11 11° 271° (W) 08:36:44 ?
HO-68 31 Oct 08:37:19 08:42:18 20° 91° (E) 08:47:14 435.675 MHz FM
RS-15 31 Oct 08:39:27 08:47:44 25° 258° (WSW) 08:56:19 29.354 - 29.394 USB, Beacon 29.352 USB
Oscar 11 31 Oct 09:30:10 09:32:13 13° 91° (E) 09:34:16 145.825 FM, Beacon 2401.500 USB
